Miscellaneous Local Product
Issued by NWS North Platte, NE

Home | Current Version | Previous Version | Text Only | Print | Product List | Glossary On
Versions: 1 2 3 4 5 6 7 8 9 10 11 12 13 14 15 16 17 18 19 20 21 22 23 24 25 26 27 28 29 30 31 32 33 34 35 36 37 38 39 40 41 42 43 44 45 46 47 48 49 50
000
AXUS43 KLBF 190710
MISLBF


WESTERN AND NORTH CENTRAL NEBRASKA HOURLY WEATHER ROUNDUP
NATIONAL WEATHER SERVICE NORTH PLATTE NE
100 AM CST THU JAN 19 2017

NOTE: "FAIR" INDICATES FEW OR NO CLOUDS BELOW 12,000 FEET WITH NO
SIGNIFICANT WEATHER AND/OR OBSTRUCTIONS TO VISIBILITY.

NOTE: STATIONS NOT REPORTING VARIABLES SUCH AS SKY/WEATHER OR
PRESSURE ARE PROVIDED BY RAWS AND APRS NETWORKS AND ARE NOT UNDER
NATIONAL WEATHER SERVICE QUALITY CONTROL.

...OBSERVATIONS IN AND NEAR THE EASTERN PANHANDLE OF NEBRASKA...

CITY           SKY/WX    TMP DP  RH WIND       PRES   REMARKS
PINE RIDGE     CLOUDY    27  22  81 W8        29.61R WCI  19
CHADRON        CLOUDY    23  18  81 SW3       29.64R
ALLIANCE       CLOUDY    22  18  85 SW5       29.63S WCI  16
SIDNEY         CLOUDY    22  19  89 NW8       29.66S WCI  12
CRESCENT LAKE    N/A     26  23  87 CALM        N/A
$$

...OBSERVATIONS IN NORTHERN NEBRASKA AND FAR SOUTHERN SOUTH DAKOTA...

CITY           SKY/WX    TMP DP  RH WIND       PRES   REMARKS
WINNER         FAIR      36  28  73 S13       29.63F WCI  27
VALENTINE      CLOUDY    32  25  75 SW12      29.63F WCI  23
THEDFORD       CLOUDY    34  32  94 S6        29.68S WCI  29
AINSWORTH      CLEAR     34  32  94 S14       29.66F WCI  24
O`NEILL        CLEAR     36  35  96 S8        29.71F WCI  30
ORD            CLEAR     33  31  92 E3        29.73F FOG
BROKEN BOW     CLEAR     35  33  92 SE6       29.71F FOG     WCI  30
VALENTINE NWR    N/A     30  28  92 S9          N/A  WCI  22
BUTTE            N/A     35  32  90 S12         N/A  WCI  27
HALSEY           N/A     35  33  92 S8G16       N/A  WCI  28
SARGENT          N/A     31  21  67 CALM        N/A
CHAMBERS         N/A     35  34  96 S6          N/A  WCI  30
EWING            N/A     38  36  92 S6          N/A  WCI  33
$$

...OBSERVATIONS IN SOUTHWEST NEBRASKA AND FAR NORTHEAST COLORADO...

CITY           SKY/WX    TMP DP  RH WIND       PRES   REMARKS
WRAY           FAIR      23  19  86 NW8       29.68S WCI  14
HOLYOKE        FAIR      21  19  93 W3        29.68S
IMPERIAL       CLOUDY    28  26  92 W3        29.68F
OGALLALA       CLOUDY    25  23  92 W3        29.68F
NORTH PLATTE   CLEAR     31  30  96 E3        29.69F FOG
MCCOOK         FOG       30  30 100 CALM      29.70F VSB<1/4
LEXINGTON      CLEAR     36  34  94 SE6       29.72F WCI  31
STAPLETON        N/A     31  30  95 CALM        N/A
GOTHENBURG       N/A     33  30  90 CALM        N/A
CALLAWAY         N/A     33  31  93 S5          N/A  WCI  28
$$

...OBSERVATIONS IN CENTRAL LINCOLN COUNTY AREA...

CITY           SKY/WX    TMP DP  RH WIND       PRES   REMARKS
N.P. AIRPORT   CLEAR     31  30  96 E3        29.69F FOG
N.P. DOWNTOWN    N/A     34  32  94 CALM        N/A
N.P. SOUTHEAST   N/A     33  30  90 CALM        N/A
N.P. HILLCREST   N/A     35  33  94 SE3         N/A
$$

...SOME OBSERVATIONS FROM AROUND THE REGION...

CITY           SKY/WX    TMP DP  RH WIND       PRES   REMARKS
LARAMIE        CLOUDY    13   9  84 NE5       29.77F WCI   5
CHEYENNE       CLOUDY    36  16  44 W13       29.67F WCI  27
DENVER         CLOUDY    32  16  51 SW12      29.66F WCI  23
AKRON          CLOUDY    29  18  63 W7        29.65F WCI  22
SCOTTSBLUFF    CLOUDY    26  19  74 NW7       29.64F WCI  18
RAPID CITY     CLOUDY    33  23  66 NW13      29.56F WCI  24
BISMARCK       CLOUDY    22  15  75 CALM      29.58F
PIERRE         CLOUDY    17  16  95 CALM      29.59S
SIOUX FALLS    CLEAR     37  36  96 S12       29.76F WCI  29
OMAHA          CLEAR     36  31  82 SE12      29.86F WCI  28
GRAND ISLAND   CLEAR     37  35  92 S12       29.77F WCI  29
KANSAS CITY    CLOUDY    43  37  79 SE8       29.92F
WICHITA        CLOUDY    44  40  85 S12       29.85F
OKLAHOMA CITY  CLOUDY    47  45  93 S14       29.89F
DALLAS         CLOUDY    52  50  93 W8        29.94S
AMARILLO       CLEAR     43  35  73 S21       29.74F
DODGE CITY     CLOUDY    45  43  93 S17       29.74F
HAYS           CLOUDY    44  42  93 S12       29.77F
GOODLAND       CLOUDY    27  25  92 CALM      29.66F
$$




USA.gov is the U.S. government's official web portal to all federal, state and local government web resources and services.